Regional Weather Roundup
Issued by NWS

Home | Current Version | Previous Version | Text Only | Print | Product List | Glossary Off
Versions: 1 2 3 4 5 6 7 8 9 10 11 12 13 14 15 16 17 18 19 20 21 22 23 24 25 26 27

000
ASUS45 KCYS 212210
RWRWY

WYOMING REGIONAL WEATHER ROUNDUP
NATIONAL WEATHER SERVICE CHEYENNE WY
300 PM MST TUE FEB 21 2017

NOTE:  "FAIR" INDICATES FEW OR NO CLOUDS BELOW 12,000 FEET
WITH NO SIGNIFICANT WEATHER AND/OR OBSTRUCTIONS TO VISIBILITY.

WYZ001-212300-
YELLOWSTONE NATIONAL PARK

CITY           SKY/WX    TMP DP  RH WIND       PRES   REMARKS
LK YELLOWSTONE   N/A     31  23  72 W9        29.82F WCI  23
W YELLOWSTONE  NOT AVBL

$$
WYZ002>013-054>058-071-098>099-212300-
NORTHERN WYOMING

CITY           SKY/WX    TMP DP  RH WIND       PRES   REMARKS
JACKSON        FLURRIES  34  30  86 S20       29.87S WCI  22
CODY           FAIR      43  34  70 SW15      29.80S
GREYBULL       FAIR      55  34  45 VRB5      29.75S
WORLAND        CLOUDY    53  32  44 W22G33    29.75R
SHERIDAN       FAIR      57  32  38 SW14      29.71S
BUFFALO        FAIR      57  27  31 S16       29.73S
GILLETTE       FAIR      60  26  27 SW26G32   29.70S
HULETT         FAIR      63  28  27 W20G26    29.70S
NEWCASTLE      FAIR      64  25  22 MISG      29.76S

$$
WYZ014>020-022>026-101>103-212300-
CENTRAL WYOMING

CITY           SKY/WX    TMP DP  RH WIND       PRES   REMARKS
BIG PINEY      MIX PCPN  35  32  88 SW8       29.89F WCI  29
PINEDALE       MOCLDY    36  32  87 SW21G26   29.91F WCI  24
DUBOIS         HVY SNOW  32  30  93 NW20G25   29.81F VSB<1/4 WCI  20
LANDER         LGT RAIN  50  29  44 SW15G38   29.82F
RIVERTON       FAIR      52  30  43 SW28G36   29.80F
CASPER         FAIR      59  23  25 SW32G54   29.83F
DOUGLAS        FAIR      62  25  24 W31G47    29.84F

$$
WYZ021-027>030-104>119-212300-
SOUTHERN WYOMING

CITY           SKY/WX    TMP DP  RH WIND       PRES   REMARKS
EVANSTON       PTSUNNY   43  28  55 SW24      29.93F
KEMMERER         N/A     43  30  61 SW22G32   29.92F
FORT BRIDGER   FAIR      46  29  52 SW18G26   29.97F
ROCK SPRINGS   PTSUNNY   50  28  42 SW25G35   29.92F
DIXON            N/A     53  30  41 SW30G38   30.06F
RAWLINS        FAIR      51  29  42 SW30G40   29.96F
SARATOGA       FAIR      52  27  37 SW26G38   30.00F
LARAMIE        FAIR      52  22  30 SW22G38   30.01F
CHEYENNE       FAIR      60  16  18 SW29G38   29.99F
TORRINGTON     FAIR      69  13  11 W37G52    29.84S
PINE BLUFFS    FAIR      64  12  13 MISG      29.94S

$$




USA.gov is the U.S. government's official web portal to all federal, state and local government web resources and services.